Regional Weather Roundup
Issued by NWS

Home | Current Version | Previous Version | Text Only | Print | Product List | Glossary On
Versions: 1 2 3 4 5 6 7 8 9 10 11 12 13 14 15 16 17 18 19 20 21 22 23 24 25 26 27 28 29 30 31 32 33 34 35 36 37 38 39 40 41 42 43 44 45 46 47 48 49 50
809
ASUS43 KMKX 212118
RWRWI

WISCONSIN REGIONAL WEATHER ROUNDUP
NATIONAL WEATHER SERVICE MILWAUKEE/SULLIVAN WI
400 PM CDT THU MAY 21 2015

NOTE: "FAIR" INDICATES FEW OR NO CLOUDS BELOW 12,000 FEET WITH NO
SIGNIFICANT WEATHER AND/OR OBSTRUCTIONS TO VISIBILITY.

WIZ001-002-006>008-014>016-023>028-212200-
NORTHWEST WISCONSIN

CITY           SKY/WX    TMP DP  RH WIND       PRES   REMARKS
SUPERIOR ARPT  SUNNY     67  37  32 NE7       30.01S
ASHLAND        SUNNY     65  41  41 N9        30.02S
HAYWARD        SUNNY     68  28  22 VRB7G20   30.01R
SIREN          SUNNY     71  28  20 N9        30.01S
CUMBERLAND     SUNNY     66  32  28 NW10G21   30.00S
RICE LAKE      SUNNY     69  31  24 NW13G18   30.01S
CHETEK         SUNNY     69  38  31 NW6G17    29.99S
LADYSMITH      MOSUNNY   69  39  33 N15       30.00R
EAU CLAIRE     MOSUNNY   73  37  27 N13       29.97S
MENOMONIE      MOSUNNY   73  34  24 W8G22     29.98F
NEW RICHMOND   SUNNY     72  31  22 NW17G23   30.00S
OSCEOLA        SUNNY     72  32  23 N13G21    30.03S
$$

WIZ003>005-009-010-017-018-212200-
NORTH CENTRAL WISCONSIN

CITY           SKY/WX    TMP DP  RH WIND       PRES   REMARKS
MANITOWISH WTR SUNNY     60  26  26 N14G20    30.00S
ARBOR VITAE    SUNNY     63  27  25 NW15G21   29.99R
WOODRUFF       SUNNY     63  27  25 NW15G21   29.99R
RHINELANDER    SUNNY     66  31  27 NW13G24   29.97R
EAGLE RIVER    SUNNY     63  23  21 N16G22    29.97S
LAND O LAKES   SUNNY     61  25  24 N9G18     30.00S
PHILLIPS       SUNNY     63  31  30 N8G22     29.99S
TOMAHAWK       MOSUNNY   66  32  28 N12G18    29.96S
MEDFORD        MOSUNNY   69  40  34 NW10      29.95R
MERRILL        MOSUNNY   67  37  33 N7G17     29.94S
$$

WIZ029-030-035-036-043>047-212200-
CENTRAL WISCONSIN

CITY           SKY/WX    TMP DP  RH WIND       PRES   REMARKS
WAUSAU         PTSUNNY   70  35  27 NW15G32   29.92S
MOSINEE        MOSUNNY   70  37  30 W16G23    29.94F
MARSHFIELD     PTSUNNY   69  37  30 NW15      29.94F
STEVENS POINT  PTSUNNY   69  33  26 NW12G21   29.94S
WAUPACA        SUNNY     75  32  20 W15G23    29.93F
WAUTOMA        MOSUNNY   74  34  23 W9G24     29.94F
WISC RAPIDS    PTSUNNY   73  30  20 W15G24    29.95F
CAMP DOUGLAS   MOSUNNY   73  37  27 W17G25    29.95F
$$

WIZ011>013-019>022-031-037>040-048>050-212200-
NORTHEAST WISCONSIN

CITY           SKY/WX    TMP DP  RH WIND       PRES   REMARKS
ANTIGO         PTSUNNY   68  38  33 N16G23    29.93S
SHAWANO        MOSUNNY   72  33  24 W10G20    29.91S
OCONTO         CLOUDY    59  41  50 E9G20     29.91R
STURGEON BAY   PTSUNNY   59  37  44 E14       29.95R
GREEN BAY      MOSUNNY   74  33  22 W21G30    29.89F
MANITOWOC      CLOUDY    71  36  27 W16G23    29.90F
APPLETON       PTSUNNY   72  32  23 W17G28    29.93S
CLINTONVILLE   MOSUNNY   73  32  21 W17G25    29.90F
OSHKOSH        PTSUNNY   70  36  28 W9        29.93F
$$

WIZ032>034-041-042-053>061-212200-
SOUTHWEST WISCONSIN

CITY           SKY/WX    TMP DP  RH WIND       PRES   REMARKS
LA CROSSE      MOSUNNY   77  39  25 NW13G23   29.96S
SPARTA         PTSUNNY   73  33  23 W14G21    29.96F
VIROQUA        MOSUNNY   73  35  25 W16G24    29.98F
BOSCOBEL       MOSUNNY   74  39  28 W10       29.99F
PRAIRIE DU CHI MOSUNNY   73  38  28 W16G22    30.00F
PLATTEVILLE    SUNNY     69  42  36 W12G23    30.03F
$$

WIZ056-057-062-063-064-067-068-212200-
SOUTH CENTRAL WISCONSIN

CITY           SKY/WX    TMP DP  RH WIND       PRES   REMARKS
REEDSBURG      MOSUNNY   70  37  29 W16G23    29.97S
BARABOO/DELLS  MOSUNNY   71  34  25 W13G18    29.97S
LONE ROCK      SUNNY     73  34  23 SW16G22   29.98F
MINERAL POINT  SUNNY     72  36  26 SW15G22   30.01F
MADISON        MOSUNNY   70  36  28 VRB7      29.98F
MIDDLETON      SUNNY     72  31  21 W9G17     30.00S
WATERTOWN      MOSUNNY   70  39  31 W12       29.98S
MONROE         SUNNY     68  37  32 W9G23     30.02F
JANESVILLE     MOSUNNY   72  34  25 W9G18     30.01S
$$

WIZ051-052-058>065-066-070>072-212200-
SOUTHEAST WISCONSIN

CITY           SKY/WX    TMP DP  RH WIND       PRES   REMARKS
MILWAUKEE      MOSUNNY   71  32  23 W12G20    29.98F
WAUKESHA       MOSUNNY   68  36  30 W12G18    29.99F
MILWAUKEE/TIMM MOSUNNY   70  30  23 W12G25    29.98F
RACINE         SUNNY     70  34  26 W9        30.00F
BURLINGTON     SUNNY     67  36  31 W10       30.00S
KENOSHA        MOSUNNY   70  37  29 W15G23    30.00S
FOND DU LAC    PTSUNNY   70  33  25 W13       29.94F
SHEBOYGAN      MOSUNNY   71  36  27 W16       29.93F
WEST BEND      SUNNY     70  34  26 W16G23    29.96F
JUNEAU         MOSUNNY   69  36  29 W8        29.97F
$$

LSZ147-162-212200-
LAKE SUPERIOR

STATION/POSITION TIME  TEMP    WIND        PRES    WAVE
                       AIR SEA DIR/SP/G            HT/PER
                 (UTC) (F)     (DEG/KT/KT) (MB)    (FT/S)
W MID LAKE BUOY  2050   39 37  210/  8/ 10   N/A     1
DEVILS ISLAND    2100   57      CALM  /  1   N/A
PORT WING        2000   48     340/  2/  4   N/A
SAXON HARBOR     2040   53        CALM       N/A
$$

LMZ867-665-643>646-212200-
LAKE MICHIGAN

STATION/POSITION TIME  TEMP    WIND        PRES    WAVE
                       AIR SEA DIR/SP/G            HT/PER
                 (UTC) (F)     (DEG/KT/KT) (MB)    (FT/S)
CHAMBERS ISLAND  2000   56      30/ 15/ 19   N/A
N MID LAKE BUOY  2050   41 36  180/  2/  2   N/A     1/ 4
NORTHPORT PIER   2000   55      10/  1/  2   N/A
SISTER BAY       2002   65     140/  6/ 10   N/A
KEWAUNEE LAKESHO 2000   71     270/ 14/ 21   N/A
SHEBOYGAN LAKESH 2100   70     270/ 17/ 22   N/A
PORT WASHINGTON  2000   72     280/  8/ 15   N/A
ATWATER BUOY     2000   61 44  280/ 12/ 14   N/A
MILWAUKEE LAKESH 2000   67     300/  9/ 14   N/A
S MID LAKE BUOY  2050   43 38  180/ 12/ 14   N/A     1/ 3
KENOSHA   LAKESH 2100   68     280/ 12/ 17   N/A
$$

TC  - TEMPERATURE IN CELSIUS
VSB - VISIBILITY IN STATUTE MILES
WCI - WIND CHILL INDEX
HX  - HEAT INDEX




USA.gov is the U.S. government's official web portal to all federal, state and local government web resources and services.